Location: Santaluz Observatory
(32.9930°N, 117.1510°W)
Time: 13:14:36
(UTC-07:00)

Hubble Space Telescope - Visible Passes

Search period start: 30 July 2015 00:00
Search period end: 09 August 2015 00:00
Orbit: 541 x 545 km, 28.5° (Epoch: 30 July)

Date Brightness Start Highest point End Pass type
(mag) Time Alt. Az. Time Alt. Az. Time Alt. Az.
30 Jul 2.8 04:31:32 14° S 04:31:32 14° S 04:32:38 10° SSE visible
01 Aug 2.7 21:16:23 10° SSW 21:17:43 15° S 21:17:43 15° S visible
02 Aug 2.1 21:07:05 10° SW 21:10:01 22° S 21:10:01 22° S visible
03 Aug 1.8 20:57:54 10° SW 21:01:24 27° SSE 21:02:07 25° SSE visible
04 Aug 1.7 20:48:48 10° SW 20:52:28 31° SSE 20:54:02 23° SE visible
05 Aug 1.5 20:39:45 10° SW 20:43:33 35° S 20:45:50 20° ESE visible
05 Aug 3.3 22:20:37 10° WSW 22:21:17 14° WSW 22:21:17 14° WSW visible
06 Aug 1.4 20:30:45 10° WSW 20:34:38 39° S 20:37:31 16° ESE visible
06 Aug 3.0 22:11:45 10° WSW 22:12:58 18° WSW 22:12:58 18° WSW visible
07 Aug 1.3 20:21:48 10° WSW 20:25:43 42° S 20:29:07 13° ESE visible
07 Aug 2.7 22:02:52 10° WSW 22:04:33 22° WSW 22:04:33 22° WSW visible
08 Aug 1.3 20:12:51 10° WSW 20:16:49 44° S 20:20:39 11° ESE visible
08 Aug 2.5 21:54:02 10° WSW 21:56:05 24° WSW 21:56:05 24° WSW visible
